Location: Newark
(33.4453°N, 112.0669°W)
Time: 11:25:42
(UTC+00:00)

LightSail 2 - Pass Details

Date: 26 January 2020
Orbit: 699 x 722 km, 24.0° (Epoch: 22 February)

Event Time Altitude Azimuth Distance (km) Brightness Sun altitude
Rises 01:26:46 0° 254° (WSW) 3,072 11.1 -7.5°
Reaches altitude 10° 01:29:30 10° 242° (WSW) 2,157 9.3 -8.1°
Maximum altitude 01:33:44 26° 186° (S) 1,350 6.9 -8.9°
Drops below altitude 10° 01:37:59 10° 129° (SE) 2,170 7.3 -9.7°
Enters shadow 01:40:01 - 120° (ESE) 2,842 7.8 -10.2°
